Regional Weather Roundup
Issued by NWS

Home | Current Version | Previous Version | Text Only | Print | Product List | Glossary Off
Versions: 1 2 3 4 5 6 7 8 9 10 11 12 13 14 15 16 17 18 19 20 21 22 23 24 25 26 27 28 29 30 31 32 33 34 35 36 37 38 39 40 41 42 43 44 45 46 47 48 49 50

000
ASUS43 KIND 150459
RWRIN

WEATHER ROUNDUP FOR INDIANA
NATIONAL WEATHER SERVICE INDIANAPOLIS IN
100 AM EDT MON SEP 15 2014

NOTE: "FAIR" INDICATES FEW OR NO CLOUDS BELOW 12,000 FEET WITH NO
SIGNIFICANT WEATHER AND/OR OBSTRUCTIONS TO VISIBILITY.

* - STATION DOES NOT REPORT WEATHER SUCH AS PRECIPITATION OR FOG.

+ - STATION NOT QUALITY CONTROLLED BY THE NATIONAL WEATHER SERVICE.
    USE DATA WITH CAUTION...ESPECIALLY DEWPOINT AND RELATIVE
    HUMIDITY OBSERVATIONS.

INZ001>003-010>013-019-020-150600-
NORTHWEST INDIANA

CITY           SKY/WX    TMP DP  RH WIND       PRES   REMARKS
GARY /AIRPORT/ CLEAR     48  46  95 CALM      30.19S
KNOX *+        CLEAR     46  44  93 SE3       30.19S
VALPARAISO     CLEAR     47  45  93 CALM      30.20S

$$

LMZ046-743>745-150600-
SOUTHERN LAKE MICHIGAN

STATION/POSITION TIME  TEMP WIND        PRES
                       AIR  DIR/SP/G
                 (UTC) (F)  (DEG/KT/KT) (MB)
MICHIGAN CITY    0400   57  140/  6/  8   N/A

$$

INZ004-005-014>016-021>024-150600-
NORTH CENTRAL INDIANA

CITY           SKY/WX    TMP DP  RH WIND       PRES   REMARKS
GOSHEN         CLEAR     48  45  89 CALM      30.20F
SOUTH BEND     CLEAR     49  45  86 CALM      30.20F
WARSAW +       CLEAR     45  45 100 CALM      30.20F FOG

$$

INZ006>009-017-018-025>027-150600-
NORTHEAST INDIANA

CITY           SKY/WX    TMP DP  RH WIND       PRES   REMARKS
ANGOLA *+      CLEAR     46  45  93 CALM      30.21R
FORT WAYNE     CLEAR     49  46  90 CALM      30.21F

$$

INZ028-029-035-036-043>045-051>053-150600-
WEST CENTRAL INDIANA

CITY           SKY/WX    TMP DP  RH WIND       PRES   REMARKS
GREENCASTLE +  CLEAR     48  46  93 CALM      30.21F
LAFAYETTE      CLEAR     47  47 100 CALM      30.19F
TERRE HAUTE    CLEAR     48  46  93 CALM      30.20F

$$

INZ030>032-037>040-046>048-054>057-064-065-150600-
CENTRAL INDIANA

CITY           SKY/WX    TMP DP  RH WIND       PRES   REMARKS
FRANKFORT +    CLEAR    N/A N/A N/A CALM      30.21F
INDIANAPOLIS   CLEAR     54  48  80 CALM      30.19F
-EAGLE CREEK   CLEAR     54  48  80 CALM      30.20F
KOKOMO *+      CLEAR     46  45  93 CALM      30.21F
MT COMFORT *+  CLEAR     46  46 100 CALM      30.21F
SHELBYVILLE    CLEAR     50  46  86 CALM      30.21S
ZIONSVILLE +   CLEAR     47  44  90 CALM      30.21F

$$

INZ033-034-041-042-049-050-058-059-150600-
EAST CENTRAL INDIANA

CITY           SKY/WX    TMP DP  RH WIND       PRES   REMARKS
MUNCIE         CLEAR     49  46  90 CALM      30.21S

$$

INZ060-061-067>069-081>083-085>088-150600-
SOUTHWEST INDIANA

CITY           SKY/WX    TMP DP  RH WIND       PRES   REMARKS
EVANSVILLE     CLEAR     54  51  90 CALM      30.20F

$$

INZ062-063-066-070>080-084-089>092-150600-
SOUTH CENTRAL AND SOUTHEAST INDIANA

CITY           SKY/WX    TMP DP  RH WIND       PRES   REMARKS
BLOOMINGTON    CLEAR     49  47  93 CALM      30.21F

$$



USA.gov is the U.S. government's official web portal to all federal, state and local government web resources and services.